User: anonymous   Login
Location: Unspecified
(0.0000°N, 0.0000°E)
Time: 19:37:17
(UTC+02:00)
Language:

Cosmos 2219 - Orbit

View from above orbital plane
View from above orbital plane
View from above satellite
View from above satellite

Ground track
Ground track

The orbit data is extracted from the following two-line orbital elements,

1 22219U 92076A   17266.70024545  .00000301  00000-0  18434-3 0  9996
2 22219  71.0629 351.9388 0019853 241.3321 118.5806 14.13619087282137
Epoch (UTC): 23 September 2017 16:48:21
Eccentricity: 0.0019853
inclination: 71.0629°
perigee height: 832 km
apogee height: 861 km
right ascension of ascending node: 351.9388°
argument of perigee: 241.3321°
revolutions per day: 14.13619087
mean anomaly at epoch: 118.5806°
orbit number at epoch: 28213

The dashed part of the orbit path shows where the satellite is in the earth's shadow,  

DLR